Regional Weather Roundup
Issued by NWS

Home | Current Version | Previous Version | Graphics & Text | Print | Product List | Glossary On
Versions: 1 2 3 4 5 6 7 8 9 10 11 12 13 14 15 16 17 18 19 20 21 22 23 24 25 26 27 28 29 30 31 32 33 34 35 36 37 38 39 40 41 42 43 44 45 46 47 48 49 50
000
ASUS43 KMKX 240321
RWRWI

WISCONSIN REGIONAL WEATHER ROUNDUP
NATIONAL WEATHER SERVICE MILWAUKEE/SULLIVAN WI
900 PM CST SUN NOV 23 2014

NOTE: "FAIR" INDICATES FEW OR NO CLOUDS BELOW 12,000 FEET WITH NO
SIGNIFICANT WEATHER AND/OR OBSTRUCTIONS TO VISIBILITY.

WIZ001-002-006>008-014>016-023>028-240400-
NORTHWEST WISCONSIN

CITY           SKY/WX    TMP DP  RH WIND       PRES   REMARKS
SUPERIOR ARPT  DRIZZLE   36  35  99 CALM      29.35F
ASHLAND        CLOUDY    38  38 100 NW6       29.32F FOG     WCI  33
HAYWARD        CLOUDY    38  37  97 CALM      29.30F FOG
SIREN          CLOUDY    37  36  98 NW5       29.33F FOG     WCI  33
CUMBERLAND     CLOUDY    36  34  93 NW12      29.29F FOG     WCI  27
RICE LAKE      DRIZZLE   37  37  99 NW5       29.30F WCI  34
CHETEK         DRIZZLE   37  37 100 NW5       29.27F WCI  34
LADYSMITH      LGT RAIN  41  40  97 NW7       29.27F VSB 1/2
EAU CLAIRE     CLOUDY    42  41  96 NW6       29.25F FOG
MENOMONIE      DRIZZLE   39  39  99 NW12      29.29F WCI  32
NEW RICHMOND   DRIZZLE   36  36 100 NW7       29.33F WCI  31
OSCEOLA        DRIZZLE   37  37 100 NW3       29.36F
$$

WIZ003>005-009-010-017-018-240400-
NORTH CENTRAL WISCONSIN

CITY           SKY/WX    TMP DP  RH WIND       PRES   REMARKS
MANITOWISH WTR FOG       36  36 100 CALM      29.27F VSB 1/4
ARBOR VITAE    FOG       43  42  96 CALM      29.27F VSB 1/2
WOODRUFF       FOG       43  42  96 CALM      29.27F VSB 1/2
RHINELANDER    FOG       38  38 100 E6        29.28F VSB 1/4 WCI  33
EAGLE RIVER    DRZL/FOG  40  40 100 CALM      29.27F VSB 1/4
LAND O LAKES   SNOW      39  39 100 CALM      29.29F VSB 1/4
PHILLIPS       FOG       41  41 100 CALM      29.26F VSB 1/4
TOMAHAWK       FOG       41  40  97 CALM      29.26F VSB 1/4
MEDFORD        FOG       42  42 100 E5        29.25F VSB 1/4
MERRILL        FOG       42  42 100 CALM      29.27F VSB 1/4
$$

WIZ029-030-035-036-043>047-240400-
CENTRAL WISCONSIN

CITY           SKY/WX    TMP DP  RH WIND       PRES   REMARKS
WAUSAU         FOG       42  42 100 E7        29.25F VSB 1/4
MOSINEE        FOG       43  43 100 E3        29.27F VSB 1/4
MARSHFIELD     FOG       44  43  96 E6        29.24F VSB 1/4
STEVENS POINT  FOG       42  42 100 E3        29.27F VSB 1/4
WAUPACA        FOG       46  45  97 N3        29.27F VSB 1/4
WAUTOMA        FOG       45  45 100 CALM      29.26F VSB 1/4
WISC RAPIDS    CLOUDY    45  43  93 E5        29.27F
CAMP DOUGLAS   FOG       46  46 100 E3        29.24F VSB 3/4
$$

WIZ011>013-019>022-031-037>040-048>050-240400-
NORTHEAST WISCONSIN

CITY           SKY/WX    TMP DP  RH WIND       PRES   REMARKS
ANTIGO         FOG       38  38 100 E6        29.27F VSB 1/4 WCI  34
SHAWANO        DRZL/FOG  43  42  95 E5        29.29F VSB<1/4
OCONTO         CLOUDY    43  43 100 CALM      29.29F
STURGEON BAY   CLOUDY    46  45  93 SE10      29.29F
GREEN BAY      LGT RAIN  46  45  96 SE10      29.27F FOG
MANITOWOC      LGT RAIN  45  45 100 SE5       29.27F VSB 3/4
APPLETON       LGT RAIN  45  45 100 SE6       29.27F FOG
CLINTONVILLE   DRZL/FOG  43  43 100 E6        29.28F VSB 3/4
OSHKOSH        LGT RAIN  46  44  93 SE8       29.24F FOG
$$

WIZ032>034-041-042-053>061-240400-
SOUTHWEST WISCONSIN

CITY           SKY/WX    TMP DP  RH WIND       PRES   REMARKS
LA CROSSE      LGT RAIN  45  44  97 CALM      29.23F VSB 3/4
SPARTA         FOG       44  44 100 CALM      29.25F VSB 1
VIROQUA        CLOUDY    45  45 100 CALM      29.23F VSB 1/4
BOSCOBEL       FOG       47  46  97 CALM      29.23F VSB 1/2
PRAIRIE DU CHI FOG       44  43  96 CALM      29.23F VSB 1/2
PLATTEVILLE    CLOUDY    46  45  97 E5        29.22F VSB 1/2
$$

WIZ056-057-062-063-064-067-068-240400-
SOUTH CENTRAL WISCONSIN

CITY           SKY/WX    TMP DP  RH WIND       PRES   REMARKS
REEDSBURG      FOG       45  45 100 CALM      29.23F VSB 1/2
BARABOO/DELLS  CLOUDY    46  45  96 CALM      29.23F FOG
LONE ROCK      CLOUDY    50  46  86 E5        29.22F FOG
MINERAL POINT  LGT RAIN  48  46  93 E3        29.21F VSB 3/4
MADISON        LGT RAIN  47  46  97 E6        29.23F FOG
MIDDLETON      CLOUDY    48  48 100 E3        29.23F VSB 1/2
WATERTOWN      LGT RAIN  46  46 100 E6        29.23F
MONROE         DRZL/FOG  46  46 100 E5        29.21F VSB 1/4
JANESVILLE     RAIN      48  46  93 E7        29.22F
$$

WIZ051-052-058>065-066-070>072-240400-
SOUTHEAST WISCONSIN

CITY           SKY/WX    TMP DP  RH WIND       PRES   REMARKS
MILWAUKEE      LGT RAIN  47  45  93 SE6       29.25F VSB 1
WAUKESHA       RAIN      45  45 100 E5        29.25F
MILWAUKEE/TIMM RAIN      45  43  93 E3        29.25F
RACINE         RAIN      46  45  96 SE6       29.25F FOG
BURLINGTON     RAIN      45  45 100 E3        29.22F
KENOSHA        RAIN      47  46  97 E6        29.23F FOG
FOND DU LAC    LGT RAIN  47  44  90 SE7       29.25F FOG
SHEBOYGAN      LGT RAIN  45  44  97 CALM      29.27F FOG
WEST BEND      RAIN      45  43  93 E5        29.25F
JUNEAU         DRIZZLE   46  45  99 E7        29.25F
$$

LSZ147-162-240400-
LAKE SUPERIOR

STATION/POSITION TIME  TEMP    WIND        PRES    WAVE
                       AIR SEA DIR/SP/G            HT/PER
                 (UTC) (F)     (DEG/KT/KT) (MB)    (FT/S)
DEVILS ISLAND    0300   39     320/  9/ 10  993.4F
PORT WING        0200   36     240/  2/  3  994.6F
SAXON HARBOR     0240   39        CALM      992.9F
$$

LMZ867-665-643>646-240400-
LAKE MICHIGAN

STATION/POSITION TIME  TEMP    WIND        PRES    WAVE
                       AIR SEA DIR/SP/G            HT/PER
                 (UTC) (F)     (DEG/KT/KT) (MB)    (FT/S)
CHAMBERS ISLAND  0200   45     130/  5/ 12  994.6F
N MID LAKE BUOY  0250   45 42  130/ 10/ 12  993.9F   3/ 6
NORTHPORT PIER   0222   43                  994.2F
SISTER BAY       0243          160/ 10/ 14   N/A
KEWAUNEE LAKESHO 0300   41     180/  2/  3  991.4F
SHEBOYGAN LAKESH 0300   45 40  120/ 10/ 11  991.4F
PORT WASHINGTON  0220   45      CALM  /  8  993.2F
ATWATER BUOY     0300   46     130/  4/  6  993.5F
MILWAUKEE LAKESH 0300   44     250/  2/  3   N/A
S MID LAKE BUOY  0250   46 42  110/ 12/ 12  990.4F   1/ 3
KENOSHA   LAKESH 0300   45     100/  8/  9  990.2F
$$

TC  - TEMPERATURE IN CELSIUS
VSB - VISIBILITY IN STATUTE MILES
WCI - WIND CHILL INDEX
HX  - HEAT INDEX



USA.gov is the U.S. government's official web portal to all federal, state and local government web resources and services.